Time,TemperatureF,DewpointF,PressureIn,WindDirection,WindDirectionDegrees,WindSpeedMPH,WindSpeedGustMPH,Humidity,HourlyPrecipIn,Conditions,Clouds,dailyrainin,SoftwareType,DateUTC
2013-10-05 00:01:00,77.7,71.0,29.95,East,96,0.0,0.0,80,0.00,,,0.00,Wunderground v.1.15,2013-10-05 04:01:00,
2013-10-05 00:02:00,77.7,71.0,29.95,East,96,0.0,0.0,80,0.00,,,0.00,Wunderground v.1.15,2013-10-05 04:02:00,
2013-10-05 00:03:00,77.7,71.0,29.95,East,96,0.0,0.0,80,0.00,,,0.00,Wunderground v.1.15,2013-10-05 04:03:00,
2013-10-05 00:04:00,77.7,71.0,29.95,East,96,0.0,0.0,80,0.00,,,0.00,Wunderground v.1.15,2013-10-05 04:04:00,
2013-10-05 00:08:00,77.7,71.0,29.95,East,95,0.0,0.0,80,0.00,,,0.00,Wunderground v.1.15,2013-10-05 04:08:00,
2013-10-05 00:12:00,77.6,70.9,29.95,East,93,0.0,0.0,80,0.00,,,0.00,Wunderground v.1.15,2013-10-05 04:12:00,
2013-10-05 00:18:00,77.6,70.9,29.95,East,93,0.0,0.0,80,0.00,,,0.00,Wunderground v.1.15,2013-10-05 04:18:00,
2013-10-05 00:23:00,77.4,70.7,29.95,East,90,0.0,0.0,80,0.00,,,0.00,Wunderground v.1.15,2013-10-05 04:23:00,
2013-10-05 00:29:00,77.4,70.7,29.95,East,90,0.0,0.0,80,0.00,,,0.00,Wunderground v.1.15,2013-10-05 04:29:00,
2013-10-05 00:34:00,77.2,70.5,29.95,East,92,0.0,0.0,80,0.00,,,0.00,Wunderground v.1.15,2013-10-05 04:34:00,
2013-10-05 00:40:00,77.2,70.9,29.95,East,90,0.0,0.0,81,0.00,,,0.00,Wunderground v.1.15,2013-10-05 04:40:00,
2013-10-05 00:46:00,77.0,70.7,29.94,East,90,0.0,0.0,81,0.00,,,0.00,Wunderground v.1.15,2013-10-05 04:46:00,
2013-10-05 00:51:00,77.0,70.7,29.94,East,92,0.0,0.0,81,0.00,,,0.00,Wunderground v.1.15,2013-10-05 04:51:00,
2013-10-05 00:57:00,76.8,70.5,29.94,East,92,0.0,0.0,81,0.00,,,0.00,Wunderground v.1.15,2013-10-05 04:57:00,
2013-10-05 01:03:00,76.8,70.5,29.94,East,92,0.0,0.0,81,0.00,,,0.00,Wunderground v.1.15,2013-10-05 05:03:00,
2013-10-05 01:08:00,76.7,70.4,29.94,East,100,0.0,0.0,81,0.00,,,0.00,Wunderground v.1.15,2013-10-05 05:08:00,
2013-10-05 01:14:00,76.7,70.4,29.94,East,92,0.0,0.0,81,0.00,,,0.00,Wunderground v.1.15,2013-10-05 05:14:00,
2013-10-05 01:20:00,76.5,70.2,29.94,East,92,0.0,0.0,81,0.00,,,0.00,Wunderground v.1.15,2013-10-05 05:20:00,
2013-10-05 01:25:00,76.5,70.2,29.94,East,92,0.0,0.0,81,0.00,,,0.00,Wunderground v.1.15,2013-10-05 05:25:00,
2013-10-05 01:31:00,76.3,70.4,29.93,East,92,0.0,0.0,82,0.00,,,0.00,Wunderground v.1.15,2013-10-05 05:31:00,
2013-10-05 01:36:00,76.3,70.4,29.93,East,92,0.0,0.0,82,0.00,,,0.00,Wunderground v.1.15,2013-10-05 05:36:00,
2013-10-05 01:41:00,76.3,70.4,29.93,East,92,0.0,0.0,82,0.00,,,0.00,Wunderground v.1.15,2013-10-05 05:41:00,
2013-10-05 01:46:00,76.1,70.2,29.93,East,92,0.0,0.0,82,0.00,,,0.00,Wunderground v.1.15,2013-10-05 05:46:00,
2013-10-05 01:52:00,76.1,70.2,29.93,East,92,0.0,0.0,82,0.00,,,0.00,Wunderground v.1.15,2013-10-05 05:52:00,
2013-10-05 01:57:00,76.1,70.2,29.93,East,92,0.0,0.0,82,0.00,,,0.00,Wunderground v.1.15,2013-10-05 05:57:00,
2013-10-05 02:02:00,76.0,70.1,29.93,East,92,0.0,0.0,82,0.00,,,0.00,Wunderground v.1.15,2013-10-05 06:02:00,
2013-10-05 02:07:00,76.0,70.1,29.93,East,92,0.0,1.0,82,0.00,,,0.00,Wunderground v.1.15,2013-10-05 06:07:00,
2013-10-05 02:12:00,75.8,69.9,29.93,East,92,0.0,0.0,82,0.00,,,0.00,Wunderground v.1.15,2013-10-05 06:12:00,
2013-10-05 02:17:00,75.8,69.9,29.93,East,92,0.0,0.0,82,0.00,,,0.00,Wunderground v.1.15,2013-10-05 06:17:00,
2013-10-05 02:22:00,75.8,70.3,29.93,East,92,0.0,0.0,83,0.00,,,0.00,Wunderground v.1.15,2013-10-05 06:22:00,
2013-10-05 02:27:00,75.6,70.1,29.93,East,92,0.0,0.0,83,0.00,,,0.00,Wunderground v.1.15,2013-10-05 06:27:00,
2013-10-05 02:32:00,75.6,70.1,29.93,East,92,0.0,0.0,83,0.00,,,0.00,Wunderground v.1.15,2013-10-05 06:32:00,
2013-10-05 02:37:00,75.6,70.1,29.93,East,93,0.0,0.0,83,0.00,,,0.00,Wunderground v.1.15,2013-10-05 06:37:00,
2013-10-05 02:42:00,75.6,70.1,29.93,East,92,0.0,0.0,83,0.00,,,0.00,Wunderground v.1.15,2013-10-05 06:42:00,
2013-10-05 02:47:00,75.4,69.9,29.92,East,92,0.0,0.0,83,0.00,,,0.00,Wunderground v.1.15,2013-10-05 06:47:00,
2013-10-05 02:52:00,75.4,69.9,29.92,East,92,0.0,0.0,83,0.00,,,0.00,Wunderground v.1.15,2013-10-05 06:52:00,
2013-10-05 02:57:00,75.3,69.8,29.92,East,92,1.0,1.0,83,0.00,,,0.00,Wunderground v.1.15,2013-10-05 06:57:00,
2013-10-05 03:02:00,75.3,69.8,29.92,East,92,0.0,0.0,83,0.00,,,0.00,Wunderground v.1.15,2013-10-05 07:02:00,
2013-10-05 03:07:00,75.3,69.8,29.92,East,92,0.0,0.0,83,0.00,,,0.00,Wunderground v.1.15,2013-10-05 07:07:00,
2013-10-05 03:12:00,75.1,69.6,29.92,East,92,0.0,0.0,83,0.00,,,0.00,Wunderground v.1.15,2013-10-05 07:12:00,
2013-10-05 03:17:00,75.1,69.9,29.92,East,92,0.0,0.0,84,0.00,,,0.00,Wunderground v.1.15,2013-10-05 07:17:00,
2013-10-05 03:22:00,75.1,69.9,29.92,East,92,0.0,0.0,84,0.00,,,0.00,Wunderground v.1.15,2013-10-05 07:22:00,
2013-10-05 03:27:00,75.1,69.9,29.92,East,92,0.0,0.0,84,0.00,,,0.00,Wunderground v.1.15,2013-10-05 07:27:00,
2013-10-05 03:32:00,75.1,69.9,29.91,East,92,0.0,0.0,84,0.00,,,0.00,Wunderground v.1.15,2013-10-05 07:32:00,
2013-10-05 03:37:00,74.9,69.7,29.91,East,92,0.0,0.0,84,0.00,,,0.00,Wunderground v.1.15,2013-10-05 07:37:00,
2013-10-05 03:42:00,74.9,69.7,29.91,East,93,0.0,0.0,84,0.00,,,0.00,Wunderground v.1.15,2013-10-05 07:42:00,
2013-10-05 03:48:00,74.9,69.7,29.90,East,92,0.0,0.0,84,0.00,,,0.00,Wunderground v.1.15,2013-10-05 07:48:00,
2013-10-05 03:52:00,74.9,69.7,29.90,East,92,0.0,0.0,84,0.00,,,0.00,Wunderground v.1.15,2013-10-05 07:52:00,
2013-10-05 03:57:00,74.9,69.7,29.90,East,92,0.0,0.0,84,0.00,,,0.00,Wunderground v.1.15,2013-10-05 07:57:00,
2013-10-05 04:02:00,74.9,69.7,29.90,East,92,0.0,0.0,84,0.00,,,0.00,Wunderground v.1.15,2013-10-05 08:02:00,
2013-10-05 04:08:00,74.9,69.7,29.90,East,92,0.0,0.0,84,0.00,,,0.00,Wunderground v.1.15,2013-10-05 08:08:00,
2013-10-05 04:13:00,74.9,69.7,29.90,East,92,0.0,0.0,84,0.00,,,0.00,Wunderground v.1.15,2013-10-05 08:13:00,
2013-10-05 04:18:00,74.7,69.5,29.90,East,92,0.0,0.0,84,0.00,,,0.00,Wunderground v.1.15,2013-10-05 08:18:00,
2013-10-05 04:23:00,74.6,69.8,29.90,East,92,0.0,0.0,85,0.00,,,0.00,Wunderground v.1.15,2013-10-05 08:23:00,
2013-10-05 04:28:00,74.6,69.8,29.90,East,92,0.0,0.0,85,0.00,,,0.00,Wunderground v.1.15,2013-10-05 08:28:00,
2013-10-05 04:33:00,74.4,69.6,29.90,East,92,0.0,0.0,85,0.00,,,0.00,Wunderground v.1.15,2013-10-05 08:33:00,
2013-10-05 04:38:00,74.4,69.6,29.90,East,92,0.0,0.0,85,0.00,,,0.00,Wunderground v.1.15,2013-10-05 08:38:00,
2013-10-05 04:43:00,74.4,69.6,29.90,East,92,0.0,0.0,85,0.00,,,0.00,Wunderground v.1.15,2013-10-05 08:43:00,
2013-10-05 04:48:00,74.4,69.6,29.89,East,92,0.0,0.0,85,0.00,,,0.00,Wunderground v.1.15,2013-10-05 08:48:00,
2013-10-05 04:53:00,74.4,69.6,29.89,East,92,0.0,0.0,85,0.00,,,0.00,Wunderground v.1.15,2013-10-05 08:53:00,
2013-10-05 04:58:00,74.2,69.4,29.89,East,92,0.0,0.0,85,0.00,,,0.00,Wunderground v.1.15,2013-10-05 08:58:00,
2013-10-05 05:03:00,74.2,69.4,29.89,East,92,0.0,0.0,85,0.00,,,0.00,Wunderground v.1.15,2013-10-05 09:03:00,
2013-10-05 05:08:00,74.2,69.4,29.89,East,92,0.0,0.0,85,0.00,,,0.00,Wunderground v.1.15,2013-10-05 09:08:00,
2013-10-05 05:13:00,74.2,69.4,29.89,East,92,0.0,0.0,85,0.00,,,0.00,Wunderground v.1.15,2013-10-05 09:13:00,
2013-10-05 05:18:00,74.0,69.5,29.89,East,92,0.0,0.0,86,0.00,,,0.00,Wunderground v.1.15,2013-10-05 09:18:00,
2013-10-05 05:23:00,74.0,69.5,29.89,East,93,0.0,0.0,86,0.00,,,0.00,Wunderground v.1.15,2013-10-05 09:23:00,
2013-10-05 05:28:00,74.0,69.5,29.89,East,92,0.0,0.0,86,0.00,,,0.00,Wunderground v.1.15,2013-10-05 09:28:00,
2013-10-05 05:33:00,74.0,69.5,29.89,East,92,0.0,0.0,86,0.00,,,0.00,Wunderground v.1.15,2013-10-05 09:33:00,
2013-10-05 05:38:00,74.0,69.5,29.89,East,92,0.0,0.0,86,0.00,,,0.00,Wunderground v.1.15,2013-10-05 09:38:00,
2013-10-05 05:43:00,73.9,69.4,29.89,East,92,0.0,0.0,86,0.00,,,0.00,Wunderground v.1.15,2013-10-05 09:43:00,
2013-10-05 05:48:00,73.9,69.4,29.90,East,92,0.0,0.0,86,0.00,,,0.00,Wunderground v.1.15,2013-10-05 09:48:00,
2013-10-05 05:53:00,73.9,69.4,29.90,East,92,0.0,0.0,86,0.00,,,0.00,Wunderground v.1.15,2013-10-05 09:53:00,
2013-10-05 05:58:00,73.9,69.4,29.90,East,92,0.0,1.0,86,0.00,,,0.00,Wunderground v.1.15,2013-10-05 09:58:00,
2013-10-05 06:03:00,73.9,69.4,29.90,East,93,0.0,1.0,86,0.00,,,0.00,Wunderground v.1.15,2013-10-05 10:03:00,
2013-10-05 06:08:00,73.9,69.4,29.90,East,92,0.0,1.0,86,0.00,,,0.00,Wunderground v.1.15,2013-10-05 10:08:00,
2013-10-05 06:13:00,73.9,69.8,29.90,East,92,0.0,0.0,87,0.00,,,0.00,Wunderground v.1.15,2013-10-05 10:13:00,
2013-10-05 06:18:00,73.9,69.8,29.90,East,92,0.0,0.0,87,0.00,,,0.00,Wunderground v.1.15,2013-10-05 10:18:00,
2013-10-05 06:23:00,73.9,69.8,29.90,East,92,0.0,3.0,87,0.00,,,0.00,Wunderground v.1.15,2013-10-05 10:23:00,
2013-10-05 06:28:00,73.7,69.6,29.90,East,92,0.0,3.0,87,0.00,,,0.00,Wunderground v.1.15,2013-10-05 10:28:00,
2013-10-05 06:33:00,73.7,69.6,29.90,East,88,0.0,2.0,87,0.00,,,0.00,Wunderground v.1.15,2013-10-05 10:33:00,
2013-10-05 06:38:00,73.7,69.6,29.90,East,86,0.0,3.0,87,0.00,,,0.00,Wunderground v.1.15,2013-10-05 10:38:00,
2013-10-05 06:43:00,73.7,69.6,29.90,East,93,0.0,2.0,87,0.00,,,0.00,Wunderground v.1.15,2013-10-05 10:43:00,
2013-10-05 06:48:00,73.7,69.6,29.90,East,88,0.0,2.0,87,0.00,,,0.00,Wunderground v.1.15,2013-10-05 10:48:00,
2013-10-05 06:54:00,73.7,69.6,29.90,East,86,0.0,0.0,87,0.00,,,0.00,Wunderground v.1.15,2013-10-05 10:54:00,
2013-10-05 06:59:00,73.7,69.6,29.90,East,86,0.0,0.0,87,0.00,,,0.00,Wunderground v.1.15,2013-10-05 10:59:00,
2013-10-05 07:04:00,73.5,69.4,29.90,East,96,0.0,3.0,87,0.00,,,0.00,Wunderground v.1.15,2013-10-05 11:04:00,
2013-10-05 07:09:00,73.5,69.4,29.90,East,95,0.0,3.0,87,0.00,,,0.00,Wunderground v.1.15,2013-10-05 11:09:00,
2013-10-05 07:14:00,73.5,69.4,29.90,East,95,2.0,5.0,87,0.00,,,0.00,Wunderground v.1.15,2013-10-05 11:14:00,
2013-10-05 07:19:00,73.5,69.4,29.90,East,93,0.0,5.0,87,0.00,,,0.00,Wunderground v.1.15,2013-10-05 11:19:00,
2013-10-05 07:24:00,73.3,69.2,29.90,East,93,0.0,0.0,87,0.00,,,0.00,Wunderground v.1.15,2013-10-05 11:24:00,
2013-10-05 07:29:00,73.3,69.2,29.90,East,93,0.0,1.0,87,0.00,,,0.00,Wunderground v.1.15,2013-10-05 11:29:00,
2013-10-05 07:34:00,73.3,69.2,29.90,East,93,0.0,1.0,87,0.00,,,0.00,Wunderground v.1.15,2013-10-05 11:34:00,
2013-10-05 07:39:00,73.2,69.1,29.90,East,95,0.0,1.0,87,0.00,,,0.00,Wunderground v.1.15,2013-10-05 11:39:00,
2013-10-05 07:44:00,73.2,69.1,29.90,East,95,0.0,0.0,87,0.00,,,0.00,Wunderground v.1.15,2013-10-05 11:44:00,
2013-10-05 07:49:00,73.2,69.1,29.90,East,100,0.0,2.0,87,0.00,,,0.00,Wunderground v.1.15,2013-10-05 11:49:00,
2013-10-05 07:54:00,73.3,69.5,29.90,East,80,0.0,0.0,88,0.00,,,0.00,Wunderground v.1.15,2013-10-05 11:54:00,
2013-10-05 07:59:00,73.3,69.2,29.90,East,80,0.0,1.0,87,0.00,,,0.00,Wunderground v.1.15,2013-10-05 11:59:00,
2013-10-05 08:04:00,73.5,69.7,29.91,East,89,6.0,6.0,88,0.00,,,0.00,Wunderground v.1.15,2013-10-05 12:04:00,
2013-10-05 08:09:00,73.5,69.7,29.91,East,93,0.0,6.0,88,0.00,,,0.00,Wunderground v.1.15,2013-10-05 12:09:00,
2013-10-05 08:14:00,73.7,69.6,29.91,East,93,0.0,1.0,87,0.00,,,0.00,Wunderground v.1.15,2013-10-05 12:14:00,
2013-10-05 08:19:00,73.9,69.8,29.92,East,93,1.0,1.0,87,0.00,,,0.00,Wunderground v.1.15,2013-10-05 12:19:00,
2013-10-05 08:24:00,73.9,69.8,29.92,East,85,0.0,0.0,87,0.00,,,0.00,Wunderground v.1.15,2013-10-05 12:24:00,
2013-10-05 08:29:00,74.0,69.9,29.92,East,85,0.0,0.0,87,0.00,,,0.00,Wunderground v.1.15,2013-10-05 12:29:00,
2013-10-05 08:34:00,74.2,70.1,29.92,East,82,0.0,1.0,87,0.00,,,0.00,Wunderground v.1.15,2013-10-05 12:34:00,
2013-10-05 08:39:00,74.4,70.3,29.92,East,93,0.0,6.0,87,0.00,,,0.00,Wunderground v.1.15,2013-10-05 12:39:00,
2013-10-05 08:44:00,74.7,70.6,29.92,East,93,0.0,1.0,87,0.00,,,0.00,Wunderground v.1.15,2013-10-05 12:44:00,
2013-10-05 08:49:00,74.9,70.8,29.92,East,93,0.0,1.0,87,0.00,,,0.00,Wunderground v.1.15,2013-10-05 12:49:00,
2013-10-05 08:54:00,75.1,70.6,29.92,NE,55,0.0,3.0,86,0.00,,,0.00,Wunderground v.1.15,2013-10-05 12:54:00,
2013-10-05 08:59:00,75.3,70.8,29.92,East,90,0.0,3.0,86,0.00,,,0.00,Wunderground v.1.15,2013-10-05 12:59:00,
2013-10-05 09:04:00,75.6,71.1,29.92,SE,128,0.0,0.0,86,0.00,,,0.00,Wunderground v.1.15,2013-10-05 13:04:00,
2013-10-05 09:09:00,75.8,71.3,29.92,SSE,152,0.0,3.0,86,0.00,,,0.00,Wunderground v.1.15,2013-10-05 13:09:00,
2013-10-05 09:14:00,76.1,71.3,29.92,South,188,0.0,6.0,85,0.00,,,0.00,Wunderground v.1.15,2013-10-05 13:14:00,
2013-10-05 09:19:00,76.3,71.5,29.93,East,92,0.0,6.0,85,0.00,,,0.00,Wunderground v.1.15,2013-10-05 13:19:00,
2013-10-05 09:25:00,76.7,71.5,29.93,SSE,158,0.0,1.0,84,0.00,,,0.00,Wunderground v.1.15,2013-10-05 13:25:00,
2013-10-05 09:30:00,77.0,71.8,29.93,East,83,0.0,6.0,84,0.00,,,0.00,Wunderground v.1.15,2013-10-05 13:30:00,
2013-10-05 09:35:00,77.6,72.0,29.93,ENE,76,2.0,7.0,83,0.00,,,0.00,Wunderground v.1.15,2013-10-05 13:35:00,
2013-10-05 09:40:00,78.1,72.5,29.93,South,191,0.0,7.0,83,0.00,,,0.00,Wunderground v.1.15,2013-10-05 13:40:00,
2013-10-05 09:45:00,78.3,72.0,29.93,East,95,5.0,8.0,81,0.00,,,0.00,Wunderground v.1.15,2013-10-05 13:45:00,
2013-10-05 09:50:00,78.6,72.3,29.93,ENE,65,6.0,8.0,81,0.00,,,0.00,Wunderground v.1.15,2013-10-05 13:50:00,
2013-10-05 09:55:00,79.2,72.5,29.93,ENE,69,0.0,7.0,80,0.00,,,0.00,Wunderground v.1.15,2013-10-05 13:55:00,
2013-10-05 10:00:00,79.6,72.5,29.93,ESE,103,0.0,7.0,79,0.00,,,0.00,Wunderground v.1.15,2013-10-05 14:00:00,
2013-10-05 10:05:00,79.8,72.3,29.93,ENE,59,0.0,8.0,78,0.00,,,0.00,Wunderground v.1.15,2013-10-05 14:05:00,
2013-10-05 10:10:00,80.3,72.8,29.93,SE,134,0.0,1.0,78,0.00,,,0.00,Wunderground v.1.15,2013-10-05 14:10:00,
2013-10-05 10:15:00,81.1,73.2,29.93,ESE,103,0.0,1.0,77,0.00,,,0.00,Wunderground v.1.15,2013-10-05 14:15:00,
2013-10-05 10:20:00,81.6,73.3,29.93,ESE,107,1.0,1.0,76,0.00,,,0.00,Wunderground v.1.15,2013-10-05 14:20:00,
2013-10-05 10:25:00,82.2,73.1,29.93,ESE,112,1.0,7.0,74,0.00,,,0.00,Wunderground v.1.15,2013-10-05 14:25:00,
2013-10-05 10:30:00,82.6,73.1,29.93,SSE,155,0.0,2.0,73,0.00,,,0.00,Wunderground v.1.15,2013-10-05 14:30:00,
2013-10-05 10:35:00,82.8,72.8,29.93,ESE,106,0.0,10.0,72,0.00,,,0.00,Wunderground v.1.15,2013-10-05 14:35:00,
2013-10-05 10:40:00,83.2,73.2,29.93,East,85,0.0,2.0,72,0.00,,,0.00,Wunderground v.1.15,2013-10-05 14:40:00,
2013-10-05 10:45:00,83.6,73.2,29.93,East,90,2.0,8.0,71,0.00,,,0.00,Wunderground v.1.15,2013-10-05 14:45:00,
2013-10-05 10:50:00,84.1,73.7,29.94,SSW,193,0.0,2.0,71,0.00,,,0.00,Wunderground v.1.15,2013-10-05 14:50:00,
2013-10-05 10:55:00,84.5,73.2,29.94,SSE,168,5.0,8.0,69,0.00,,,0.00,Wunderground v.1.15,2013-10-05 14:55:00,
2013-10-05 11:00:00,84.9,73.2,29.94,East,83,1.0,4.0,68,0.00,,,0.00,Wunderground v.1.15,2013-10-05 15:00:00,
2013-10-05 11:05:00,85.3,73.5,29.93,South,169,0.0,7.0,68,0.00,,,0.00,Wunderground v.1.15,2013-10-05 15:05:00,
2013-10-05 11:10:00,85.7,73.5,29.93,East,90,0.0,0.0,67,0.00,,,0.00,Wunderground v.1.15,2013-10-05 15:10:00,
2013-10-05 11:15:00,86.1,73.4,29.93,East,90,0.0,6.0,66,0.00,,,0.00,Wunderground v.1.15,2013-10-05 15:15:00,
2013-10-05 11:20:00,86.1,73.4,29.93,East,93,0.0,3.0,66,0.00,,,0.00,Wunderground v.1.15,2013-10-05 15:20:00,
2013-10-05 11:25:00,86.5,73.3,29.93,SE,141,5.0,6.0,65,0.00,,,0.00,Wunderground v.1.15,2013-10-05 15:25:00,
2013-10-05 11:31:00,87.0,73.3,29.93,East,90,0.0,2.0,64,0.00,,,0.00,Wunderground v.1.15,2013-10-05 15:31:00,
2013-10-05 11:36:00,87.0,73.3,29.93,East,93,0.0,6.0,64,0.00,,,0.00,Wunderground v.1.15,2013-10-05 15:36:00,
2013-10-05 11:41:00,87.4,73.7,29.93,East,83,2.0,5.0,64,0.00,,,0.00,Wunderground v.1.15,2013-10-05 15:41:00,
2013-10-05 11:46:00,87.6,73.4,29.93,ENE,75,0.0,6.0,63,0.00,,,0.00,Wunderground v.1.15,2013-10-05 15:46:00,
2013-10-05 11:51:00,88.0,73.3,29.93,North,11,0.0,2.0,62,0.00,,,0.00,Wunderground v.1.15,2013-10-05 15:51:00,
2013-10-05 11:56:00,88.4,73.2,29.93,NNW,346,2.0,7.0,61,0.00,,,0.00,Wunderground v.1.15,2013-10-05 15:56:00,
2013-10-05 12:01:00,88.6,72.9,29.93,ENE,64,0.0,6.0,60,0.00,,,0.00,Wunderground v.1.15,2013-10-05 16:01:00,
2013-10-05 12:06:00,88.6,72.9,29.93,NNE,14,0.0,8.0,60,0.00,,,0.00,Wunderground v.1.15,2013-10-05 16:06:00,
2013-10-05 12:11:00,88.8,72.6,29.93,ESE,109,0.0,2.0,59,0.00,,,0.00,Wunderground v.1.15,2013-10-05 16:11:00,
2013-10-05 12:16:00,89.0,72.8,29.92,ENE,76,0.0,2.0,59,0.00,,,0.00,Wunderground v.1.15,2013-10-05 16:16:00,
2013-10-05 12:21:00,89.0,72.3,29.92,North,359,0.0,1.0,58,0.00,,,0.00,Wunderground v.1.15,2013-10-05 16:21:00,
2013-10-05 12:26:00,89.0,72.3,29.92,East,97,0.0,8.0,58,0.00,,,0.00,Wunderground v.1.15,2013-10-05 16:26:00,
2013-10-05 12:31:00,89.5,72.8,29.92,North,3,1.0,1.0,58,0.00,,,0.00,Wunderground v.1.15,2013-10-05 16:31:00,
2013-10-05 12:36:00,89.9,72.1,29.92,NNW,344,0.0,6.0,56,0.00,,,0.00,Wunderground v.1.15,2013-10-05 16:36:00,
2013-10-05 12:41:00,90.1,72.3,29.92,East,97,0.0,1.0,56,0.00,,,0.00,Wunderground v.1.15,2013-10-05 16:41:00,
2013-10-05 12:46:00,89.9,71.6,29.92,ESE,102,0.0,9.0,55,0.00,,,0.00,Wunderground v.1.15,2013-10-05 16:46:00,
2013-10-05 12:51:00,89.9,71.6,29.92,NE,41,0.0,1.0,55,0.00,,,0.00,Wunderground v.1.15,2013-10-05 16:51:00,
2013-10-05 12:56:00,90.3,71.9,29.92,ESE,119,0.0,4.0,55,0.00,,,0.00,Wunderground v.1.15,2013-10-05 16:56:00,
2013-10-05 13:01:00,90.7,71.8,29.91,North,352,0.0,0.0,54,0.00,,,0.00,Wunderground v.1.15,2013-10-05 17:01:00,
2013-10-05 13:06:00,91.2,72.2,29.91,East,89,4.0,4.0,54,0.00,,,0.00,Wunderground v.1.15,2013-10-05 17:06:00,
2013-10-05 13:11:00,91.2,71.7,29.91,NNE,13,0.0,0.0,53,0.00,,,0.00,Wunderground v.1.15,2013-10-05 17:11:00,
2013-10-05 13:16:00,91.4,71.3,29.91,North,4,2.0,6.0,52,0.00,,,0.00,Wunderground v.1.15,2013-10-05 17:16:00,
2013-10-05 13:21:00,91.4,70.7,29.91,ESE,117,0.0,7.0,51,0.00,,,0.00,Wunderground v.1.15,2013-10-05 17:21:00,
2013-10-05 13:27:00,91.4,70.7,29.91,ENE,73,3.0,10.0,51,0.00,,,0.00,Wunderground v.1.15,2013-10-05 17:27:00,
2013-10-05 13:32:00,91.4,70.7,29.90,North,359,0.0,2.0,51,0.00,,,0.00,Wunderground v.1.15,2013-10-05 17:32:00,
2013-10-05 13:37:00,91.8,71.1,29.90,ESE,104,0.0,2.0,51,0.00,,,0.00,Wunderground v.1.15,2013-10-05 17:37:00,
2013-10-05 13:42:00,92.1,70.8,29.90,NNE,18,0.0,1.0,50,0.00,,,0.00,Wunderground v.1.15,2013-10-05 17:42:00,
2013-10-05 13:47:00,92.5,70.6,29.89,ESE,113,0.0,1.0,49,0.00,,,0.00,Wunderground v.1.15,2013-10-05 17:47:00,
2013-10-05 13:52:00,92.7,70.7,29.89,ENE,73,2.0,2.0,49,0.00,,,0.00,Wunderground v.1.15,2013-10-05 17:52:00,
2013-10-05 13:57:00,92.9,70.3,29.89,ENE,72,6.0,6.0,48,0.00,,,0.00,Wunderground v.1.15,2013-10-05 17:57:00,
2013-10-05 14:02:00,92.9,69.7,29.89,SSW,193,0.0,1.0,47,0.00,,,0.00,Wunderground v.1.15,2013-10-05 18:02:00,
2013-10-05 14:07:00,93.2,70.0,29.89,East,96,0.0,5.0,47,0.00,,,0.00,Wunderground v.1.15,2013-10-05 18:07:00,
2013-10-05 14:12:00,93.4,70.2,29.89,NNE,30,5.0,6.0,47,0.00,,,0.00,Wunderground v.1.15,2013-10-05 18:12:00,
2013-10-05 14:17:00,93.2,68.7,29.88,North,357,0.0,6.0,45,0.00,,,0.00,Wunderground v.1.15,2013-10-05 18:17:00,
2013-10-05 14:22:00,93.2,69.3,29.88,North,349,0.0,10.0,46,0.00,,,0.00,Wunderground v.1.15,2013-10-05 18:22:00,
2013-10-05 14:27:00,93.2,68.7,29.88,NNE,28,0.0,10.0,45,0.00,,,0.00,Wunderground v.1.15,2013-10-05 18:27:00,
2013-10-05 14:32:00,92.9,68.4,29.87,East,92,3.0,3.0,45,0.00,,,0.00,Wunderground v.1.15,2013-10-05 18:32:00,
2013-10-05 14:37:00,92.7,68.9,29.87,North,352,0.0,4.0,46,0.00,,,0.00,Wunderground v.1.15,2013-10-05 18:37:00,
2013-10-05 14:42:00,92.9,69.1,29.87,NE,44,0.0,7.0,46,0.00,,,0.00,Wunderground v.1.15,2013-10-05 18:42:00,
2013-10-05 14:47:00,92.9,69.1,29.86,North,7,0.0,7.0,46,0.00,,,0.00,Wunderground v.1.15,2013-10-05 18:47:00,
2013-10-05 14:52:00,93.2,68.7,29.86,North,353,0.0,0.0,45,0.00,,,0.00,Wunderground v.1.15,2013-10-05 18:52:00,
2013-10-05 14:57:00,93.6,69.1,29.86,NE,47,0.0,1.0,45,0.00,,,0.00,Wunderground v.1.15,2013-10-05 18:57:00,
2013-10-05 15:02:00,93.8,69.2,29.86,NE,45,0.0,0.0,45,0.00,,,0.00,Wunderground v.1.15,2013-10-05 19:02:00,
2013-10-05 15:07:00,93.6,68.4,29.86,East,93,0.0,1.0,44,0.00,,,0.00,Wunderground v.1.15,2013-10-05 19:07:00,
2013-10-05 15:12:00,93.6,70.3,29.86,West,280,0.0,7.0,47,0.00,,,0.00,Wunderground v.1.15,2013-10-05 19:12:00,
2013-10-05 15:17:00,93.4,70.8,29.86,West,267,2.0,10.0,48,0.00,,,0.00,Wunderground v.1.15,2013-10-05 19:17:00,
2013-10-05 15:22:00,92.9,70.9,29.86,WNW,292,2.0,7.0,49,0.00,,,0.00,Wunderground v.1.15,2013-10-05 19:22:00,
2013-10-05 15:27:00,92.3,70.4,29.86,WNW,289,3.0,7.0,49,0.00,,,0.00,Wunderground v.1.15,2013-10-05 19:27:00,
2013-10-05 15:32:00,91.6,70.9,29.85,NW,326,0.0,6.0,51,0.00,,,0.00,Wunderground v.1.15,2013-10-05 19:32:00,
2013-10-05 15:37:00,90.7,70.7,29.85,NNW,344,0.0,8.0,52,0.00,,,0.00,Wunderground v.1.15,2013-10-05 19:37:00,
2013-10-05 15:42:00,90.3,70.8,29.85,North,0,1.0,7.0,53,0.00,,,0.00,Wunderground v.1.15,2013-10-05 19:42:00,
2013-10-05 15:47:00,89.9,71.0,29.85,WSW,241,6.0,10.0,54,0.00,,,0.00,Wunderground v.1.15,2013-10-05 19:47:00,
2013-10-05 15:52:00,89.7,71.4,29.85,North,0,0.0,4.0,55,0.00,,,0.00,Wunderground v.1.15,2013-10-05 19:52:00,
2013-10-05 15:57:00,89.7,71.9,29.85,WSW,253,5.0,7.0,56,0.00,,,0.00,Wunderground v.1.15,2013-10-05 19:57:00,
2013-10-05 16:02:00,89.5,71.7,29.85,West,277,6.0,10.0,56,0.00,,,0.00,Wunderground v.1.15,2013-10-05 20:02:00,
2013-10-05 16:07:00,89.3,72.6,29.85,WNW,298,3.0,10.0,58,0.00,,,0.00,Wunderground v.1.15,2013-10-05 20:07:00,
2013-10-05 16:12:00,89.0,72.3,29.85,South,188,0.0,6.0,58,0.00,,,0.00,Wunderground v.1.15,2013-10-05 20:12:00,
2013-10-05 16:17:00,88.6,72.4,29.84,North,349,0.0,10.0,59,0.00,,,0.00,Wunderground v.1.15,2013-10-05 20:17:00,
2013-10-05 16:22:00,88.4,72.2,29.84,North,350,3.0,6.0,59,0.00,,,0.00,Wunderground v.1.15,2013-10-05 20:22:00,
2013-10-05 16:27:00,88.4,72.7,29.84,NNW,339,0.0,7.0,60,0.00,,,0.00,Wunderground v.1.15,2013-10-05 20:27:00,
2013-10-05 16:32:00,88.4,72.7,29.84,SW,215,2.0,7.0,60,0.00,,,0.00,Wunderground v.1.15,2013-10-05 20:32:00,
2013-10-05 16:37:00,88.2,73.0,29.84,North,350,5.0,7.0,61,0.00,,,0.00,Wunderground v.1.15,2013-10-05 20:37:00,
2013-10-05 16:42:00,88.0,73.3,29.84,West,272,0.0,7.0,62,0.00,,,0.00,Wunderground v.1.15,2013-10-05 20:42:00,
2013-10-05 16:47:00,87.6,73.0,29.84,North,357,7.0,9.0,62,0.00,,,0.00,Wunderground v.1.15,2013-10-05 20:47:00,
2013-10-05 16:53:00,87.4,73.3,29.84,North,0,3.0,8.0,63,0.00,,,0.00,Wunderground v.1.15,2013-10-05 20:53:00,
2013-10-05 16:58:00,87.0,72.9,29.84,NW,304,3.0,8.0,63,0.00,,,0.00,Wunderground v.1.15,2013-10-05 20:58:00,
2013-10-05 17:03:00,86.5,72.9,29.84,WNW,282,3.0,8.0,64,0.00,,,0.00,Wunderground v.1.15,2013-10-05 21:03:00,
2013-10-05 17:08:00,86.1,72.5,29.84,SW,234,0.0,8.0,64,0.00,,,0.00,Wunderground v.1.15,2013-10-05 21:08:00,
2013-10-05 17:13:00,85.9,72.3,29.84,WSW,254,0.0,7.0,64,0.00,,,0.00,Wunderground v.1.15,2013-10-05 21:13:00,
2013-10-05 17:18:00,85.7,72.6,29.84,WNW,298,0.0,13.0,65,0.00,,,0.00,Wunderground v.1.15,2013-10-05 21:18:00,
2013-10-05 17:23:00,85.7,72.6,29.84,NNW,332,0.0,6.0,65,0.00,,,0.00,Wunderground v.1.15,2013-10-05 21:23:00,
2013-10-05 17:28:00,85.5,72.8,29.84,North,349,0.0,6.0,66,0.00,,,0.00,Wunderground v.1.15,2013-10-05 21:28:00,
2013-10-05 17:33:00,85.5,72.8,29.84,North,0,4.0,8.0,66,0.00,,,0.00,Wunderground v.1.15,2013-10-05 21:33:00,
2013-10-05 17:38:00,85.1,72.5,29.84,WNW,295,5.0,8.0,66,0.00,,,0.00,Wunderground v.1.15,2013-10-05 21:38:00,
2013-10-05 17:43:00,84.9,72.7,29.84,WSW,240,0.0,2.0,67,0.00,,,0.00,Wunderground v.1.15,2013-10-05 21:43:00,
2013-10-05 17:48:00,84.9,73.2,29.84,NE,41,1.0,2.0,68,0.00,,,0.00,Wunderground v.1.15,2013-10-05 21:48:00,
2013-10-05 17:53:00,84.7,73.0,29.84,North,352,0.0,5.0,68,0.00,,,0.00,Wunderground v.1.15,2013-10-05 21:53:00,
2013-10-05 17:58:00,84.5,72.8,29.84,West,268,6.0,6.0,68,0.00,,,0.00,Wunderground v.1.15,2013-10-05 21:58:00,
2013-10-05 18:03:00,84.3,72.6,29.84,North,354,0.0,6.0,68,0.00,,,0.00,Wunderground v.1.15,2013-10-05 22:03:00,
2013-10-05 18:08:00,84.1,72.4,29.84,North,356,0.0,6.0,68,0.00,,,0.00,Wunderground v.1.15,2013-10-05 22:08:00,
2013-10-05 18:13:00,84.0,72.3,29.84,West,278,3.0,7.0,68,0.00,,,0.00,Wunderground v.1.15,2013-10-05 22:13:00,
2013-10-05 18:18:00,83.6,71.9,29.84,NNW,339,1.0,7.0,68,0.00,,,0.00,Wunderground v.1.15,2013-10-05 22:18:00,
2013-10-05 18:23:00,83.4,72.2,29.84,North,0,0.0,5.0,69,0.00,,,0.00,Wunderground v.1.15,2013-10-05 22:23:00,
2013-10-05 18:28:00,83.2,72.0,29.84,NNW,333,0.0,10.0,69,0.00,,,0.00,Wunderground v.1.15,2013-10-05 22:28:00,
2013-10-05 18:33:00,83.0,72.2,29.84,North,0,0.0,3.0,70,0.00,,,0.00,Wunderground v.1.15,2013-10-05 22:33:00,
2013-10-05 18:38:00,82.8,72.0,29.84,North,3,0.0,3.0,70,0.00,,,0.00,Wunderground v.1.15,2013-10-05 22:38:00,
2013-10-05 18:43:00,82.6,71.8,29.84,North,3,0.0,0.0,70,0.00,,,0.00,Wunderground v.1.15,2013-10-05 22:43:00,
2013-10-05 18:48:00,82.6,72.2,29.84,NNW,343,0.0,2.0,71,0.00,,,0.00,Wunderground v.1.15,2013-10-05 22:48:00,
2013-10-05 18:53:00,82.4,72.5,29.84,North,353,0.0,0.0,72,0.00,,,0.00,Wunderground v.1.15,2013-10-05 22:53:00,
2013-10-05 18:58:00,82.4,72.0,29.84,North,0,0.0,3.0,71,0.00,,,0.00,Wunderground v.1.15,2013-10-05 22:58:00,
2013-10-05 19:03:00,82.2,72.3,29.84,NW,326,0.0,1.0,72,0.00,,,0.00,Wunderground v.1.15,2013-10-05 23:03:00,
2013-10-05 19:08:00,82.2,72.3,29.84,NNW,339,0.0,1.0,72,0.00,,,0.00,Wunderground v.1.15,2013-10-05 23:08:00,
2013-10-05 19:13:00,82.0,72.1,29.84,North,350,0.0,0.0,72,0.00,,,0.00,Wunderground v.1.15,2013-10-05 23:13:00,
2013-10-05 19:18:00,82.0,72.1,29.84,North,350,0.0,0.0,72,0.00,,,0.00,Wunderground v.1.15,2013-10-05 23:18:00,
2013-10-05 19:23:00,81.8,72.3,29.84,NNW,330,0.0,0.0,73,0.00,,,0.00,Wunderground v.1.15,2013-10-05 23:23:00,
2013-10-05 19:28:00,81.8,72.3,29.84,North,350,0.0,3.0,73,0.00,,,0.00,Wunderground v.1.15,2013-10-05 23:28:00,
2013-10-05 19:33:00,81.6,72.1,29.84,NNW,339,0.0,2.0,73,0.00,,,0.00,Wunderground v.1.15,2013-10-05 23:33:00,
2013-10-05 19:38:00,81.6,72.5,29.84,North,353,0.0,2.0,74,0.00,,,0.00,Wunderground v.1.15,2013-10-05 23:38:00,
2013-10-05 19:43:00,81.4,72.3,29.84,North,353,0.0,0.0,74,0.00,,,0.00,Wunderground v.1.15,2013-10-05 23:43:00,
2013-10-05 19:48:00,81.4,72.3,29.84,West,280,1.0,2.0,74,0.00,,,0.00,Wunderground v.1.15,2013-10-05 23:48:00,
2013-10-05 19:53:00,81.4,72.3,29.84,NNW,347,0.0,0.0,74,0.00,,,0.00,Wunderground v.1.15,2013-10-05 23:53:00,
2013-10-05 19:58:00,81.4,72.7,29.84,NNW,347,0.0,0.0,75,0.00,,,0.00,Wunderground v.1.15,2013-10-05 23:58:00,
2013-10-05 20:03:00,81.2,72.1,29.84,NNW,347,0.0,0.0,74,0.00,,,0.00,Wunderground v.1.15,2013-10-06 00:03:00,
2013-10-05 20:08:00,81.2,72.5,29.84,NNW,347,0.0,0.0,75,0.00,,,0.00,Wunderground v.1.15,2013-10-06 00:08:00,
2013-10-05 20:13:00,81.1,72.4,29.84,NNW,347,0.0,0.0,75,0.00,,,0.00,Wunderground v.1.15,2013-10-06 00:13:00,
2013-10-05 20:18:00,81.1,72.8,29.84,North,0,0.0,0.0,76,0.00,,,0.00,Wunderground v.1.15,2013-10-06 00:18:00,
2013-10-05 20:23:00,81.1,72.8,29.84,North,0,0.0,0.0,76,0.00,,,0.00,Wunderground v.1.15,2013-10-06 00:23:00,
2013-10-05 20:28:00,81.1,72.8,29.84,North,0,0.0,0.0,76,0.00,,,0.00,Wunderground v.1.15,2013-10-06 00:28:00,
2013-10-05 20:33:00,81.1,72.8,29.85,North,0,0.0,0.0,76,0.00,,,0.00,Wunderground v.1.15,2013-10-06 00:33:00,
2013-10-05 20:38:00,81.2,72.9,29.85,North,0,0.0,0.0,76,0.00,,,0.00,Wunderground v.1.15,2013-10-06 00:38:00,
2013-10-05 20:44:00,81.2,72.9,29.85,North,0,0.0,0.0,76,0.00,,,0.00,Wunderground v.1.15,2013-10-06 00:44:00,
2013-10-05 20:49:00,81.2,72.9,29.85,North,0,0.0,0.0,76,0.00,,,0.00,Wunderground v.1.15,2013-10-06 00:49:00,
2013-10-05 20:54:00,81.2,73.3,29.85,North,0,0.0,0.0,77,0.00,,,0.00,Wunderground v.1.15,2013-10-06 00:54:00,
2013-10-05 20:59:00,81.2,73.3,29.85,North,0,0.0,0.0,77,0.00,,,0.00,Wunderground v.1.15,2013-10-06 00:59:00,
2013-10-05 21:04:00,81.1,72.8,29.86,North,0,0.0,0.0,76,0.00,,,0.00,Wunderground v.1.15,2013-10-06 01:04:00,
2013-10-05 21:09:00,81.1,72.8,29.86,North,0,0.0,0.0,76,0.00,,,0.00,Wunderground v.1.15,2013-10-06 01:09:00,
2013-10-05 21:14:00,80.9,72.6,29.86,North,0,0.0,0.0,76,0.00,,,0.00,Wunderground v.1.15,2013-10-06 01:14:00,
2013-10-05 21:19:00,80.7,72.4,29.86,North,0,0.0,0.0,76,0.00,,,0.00,Wunderground v.1.15,2013-10-06 01:19:00,
2013-10-05 21:24:00,80.7,72.0,29.86,North,0,0.0,0.0,75,0.00,,,0.00,Wunderground v.1.15,2013-10-06 01:24:00,
2013-10-05 21:29:00,80.5,71.8,29.86,SE,133,0.0,0.0,75,0.00,,,0.00,Wunderground v.1.15,2013-10-06 01:29:00,
2013-10-05 21:34:00,80.3,71.6,29.87,SE,134,0.0,0.0,75,0.00,,,0.00,Wunderground v.1.15,2013-10-06 01:34:00,
2013-10-05 21:39:00,80.1,71.5,29.87,SE,133,0.0,0.0,75,0.00,,,0.00,Wunderground v.1.15,2013-10-06 01:39:00,
2013-10-05 21:44:00,80.1,71.5,29.87,SE,133,0.0,0.0,75,0.00,,,0.00,Wunderground v.1.15,2013-10-06 01:44:00,
2013-10-05 21:49:00,79.9,71.3,29.87,SE,133,0.0,0.0,75,0.00,,,0.00,Wunderground v.1.15,2013-10-06 01:49:00,
2013-10-05 21:54:00,79.8,71.2,29.87,SE,133,0.0,0.0,75,0.00,,,0.00,Wunderground v.1.15,2013-10-06 01:54:00,
2013-10-05 21:59:00,79.8,71.2,29.87,SE,133,0.0,0.0,75,0.00,,,0.00,Wunderground v.1.15,2013-10-06 01:59:00,
2013-10-05 22:04:00,79.6,71.0,29.87,East,100,0.0,0.0,75,0.00,,,0.00,Wunderground v.1.15,2013-10-06 02:04:00,
2013-10-05 22:09:00,79.4,70.8,29.87,East,99,0.0,5.0,75,0.00,,,0.00,Wunderground v.1.15,2013-10-06 02:09:00,
2013-10-05 22:14:00,79.4,70.8,29.87,East,92,0.0,2.0,75,0.00,,,0.00,Wunderground v.1.15,2013-10-06 02:14:00,
2013-10-05 22:19:00,79.2,70.6,29.87,East,92,0.0,2.0,75,0.00,,,0.00,Wunderground v.1.15,2013-10-06 02:19:00,
2013-10-05 22:24:00,79.0,70.4,29.87,East,89,0.0,5.0,75,0.00,,,0.00,Wunderground v.1.15,2013-10-06 02:24:00,
2013-10-05 22:29:00,79.0,70.4,29.87,East,89,0.0,5.0,75,0.00,,,0.00,Wunderground v.1.15,2013-10-06 02:29:00,
2013-10-05 22:34:00,78.8,70.2,29.88,East,89,0.0,1.0,75,0.00,,,0.00,Wunderground v.1.15,2013-10-06 02:34:00,
2013-10-05 22:39:00,78.6,70.0,29.88,East,89,0.0,4.0,75,0.00,,,0.00,Wunderground v.1.15,2013-10-06 02:39:00,
2013-10-05 22:44:00,78.5,69.9,29.88,East,83,0.0,5.0,75,0.00,,,0.00,Wunderground v.1.15,2013-10-06 02:44:00,
2013-10-05 22:49:00,78.5,69.9,29.88,East,96,0.0,5.0,75,0.00,,,0.00,Wunderground v.1.15,2013-10-06 02:49:00,
2013-10-05 22:54:00,78.3,69.3,29.88,East,86,0.0,6.0,74,0.00,,,0.00,Wunderground v.1.15,2013-10-06 02:54:00,
2013-10-05 22:59:00,78.3,69.7,29.88,East,85,0.0,6.0,75,0.00,,,0.00,Wunderground v.1.15,2013-10-06 02:59:00,
2013-10-05 23:04:00,78.1,69.5,29.88,East,93,0.0,3.0,75,0.00,,,0.00,Wunderground v.1.15,2013-10-06 03:04:00,
2013-10-05 23:09:00,78.1,69.5,29.88,East,93,0.0,3.0,75,0.00,,,0.00,Wunderground v.1.15,2013-10-06 03:09:00,
2013-10-05 23:14:00,77.9,69.3,29.88,East,82,0.0,5.0,75,0.00,,,0.00,Wunderground v.1.15,2013-10-06 03:14:00,
2013-10-05 23:19:00,77.9,69.3,29.88,East,89,0.0,5.0,75,0.00,,,0.00,Wunderground v.1.15,2013-10-06 03:19:00,
2013-10-05 23:24:00,77.7,69.1,29.88,East,90,0.0,7.0,75,0.00,,,0.00,Wunderground v.1.15,2013-10-06 03:24:00,
2013-10-05 23:29:00,77.7,69.1,29.88,East,85,0.0,7.0,75,0.00,,,0.00,Wunderground v.1.15,2013-10-06 03:29:00,
2013-10-05 23:34:00,77.7,69.1,29.88,East,89,0.0,3.0,75,0.00,,,0.00,Wunderground v.1.15,2013-10-06 03:34:00,
2013-10-05 23:39:00,77.6,69.0,29.88,ENE,68,0.0,5.0,75,0.00,,,0.00,Wunderground v.1.15,2013-10-06 03:39:00,
2013-10-05 23:44:00,77.6,69.4,29.88,East,89,0.0,5.0,76,0.00,,,0.00,Wunderground v.1.15,2013-10-06 03:44:00,
2013-10-05 23:49:00,77.4,69.2,29.88,East,80,0.0,5.0,76,0.00,,,0.00,Wunderground v.1.15,2013-10-06 03:49:00,
2013-10-05 23:54:00,77.4,69.2,29.88,East,83,0.0,0.0,76,0.00,,,0.00,Wunderground v.1.15,2013-10-06 03:54:00,
2013-10-05 23:59:00,77.4,69.2,29.88,East,99,0.0,3.0,76,0.00,,,0.00,Wunderground v.1.15,2013-10-06 03:59:00,